ITY964 ZWWW-UAAA

Flight info

Callsign ITY964
Flight time 1h 25m
Altitude 40000
Route NIXER2N NIXER W119 GOBOK A343 RULAD/K0895F400 M610 BERTO Z315 ALUGI ALUGI4B
Aircraft A359/H-SDE2E3GHIJ3J4J5LM1ORWXY/LB1D1

Departure

Time 2026-04-22 07:55
Airport Ürümqi Tianshan International Airport (ZWWW)

Arrival

Time 2026-04-22 09:20
Airport Almaty International Airport (UAAA)
Time Latitude Longitude Altitude Speed Heading
2026-04-22 07:36 43.90745 87.49958 2141 ft 0 kts 165°
2026-04-22 07:44 43.90750 87.49956 2140 ft 3 kts 164°
2026-04-22 07:44 43.90770 87.49948 2139 ft 3 kts 164°
2026-04-22 07:45 43.90790 87.49940 2139 ft 3 kts 164°
2026-04-22 07:45 43.90810 87.49933 2140 ft 3 kts 177°
2026-04-22 07:45 43.90830 87.49932 2139 ft 3 kts 198°
2026-04-22 07:45 43.90848 87.49947 2140 ft 3 kts 239°
2026-04-22 07:46 43.90853 87.49966 2138 ft 0 kts 269°
2026-04-22 07:48 43.90853 87.49955 2139 ft 5 kts 266°
2026-04-22 07:49 43.90844 87.49850 2141 ft 14 kts 278°
2026-04-22 07:49 43.90882 87.49698 2140 ft 18 kts 316°
2026-04-22 07:49 43.90979 87.49579 2142 ft 20 kts 275°
2026-04-22 07:49 43.90948 87.49362 2141 ft 27 kts 253°
2026-04-22 07:50 43.90889 87.49084 2141 ft 33 kts 253°
2026-04-22 07:50 43.90819 87.48756 2141 ft 38 kts 253°
2026-04-22 07:50 43.90742 87.48389 2141 ft 42 kts 253°
2026-04-22 07:50 43.90658 87.47994 2141 ft 43 kts 253°
2026-04-22 07:51 43.90581 87.47641 2141 ft 32 kts 254°
2026-04-22 07:51 43.90521 87.47356 2141 ft 31 kts 253°
2026-04-22 07:51 43.90460 87.47070 2140 ft 31 kts 253°
2026-04-22 07:51 43.90399 87.46780 2142 ft 32 kts 253°
2026-04-22 07:52 43.90335 87.46482 2141 ft 33 kts 253°
2026-04-22 07:52 43.90272 87.46185 2141 ft 30 kts 253°
2026-04-22 07:52 43.90212 87.45905 2141 ft 31 kts 253°
2026-04-22 07:52 43.90152 87.45622 2142 ft 31 kts 253°
2026-04-22 07:53 43.90145 87.45354 2142 ft 21 kts 310°
2026-04-22 07:53 43.90158 87.45341 2142 ft 0 kts 334°
2026-04-22 07:53 43.90220 87.45308 2143 ft 15 kts 351°
2026-04-22 07:54 43.90262 87.45338 2144 ft 5 kts 53°
2026-04-22 07:54 43.90310 87.45527 2142 ft 52 kts 72°
2026-04-22 07:54 43.90479 87.46323 2139 ft 118 kts 73°
2026-04-22 07:54 43.90765 87.47668 2166 ft 169 kts 74°
2026-04-22 07:55 43.91056 87.49240 2765 ft 173 kts 76°
2026-04-22 07:55 43.91519 87.50827 3382 ft 188 kts 52°
2026-04-22 07:55 43.92467 87.52277 3842 ft 218 kts 47°
2026-04-22 07:55 43.93407 87.54016 4441 ft 232 kts 57°
2026-04-22 07:56 43.94228 87.55988 4950 ft 241 kts 57°
2026-04-22 07:56 43.95392 87.57681 5600 ft 245 kts 32°
2026-04-22 07:56 43.97003 87.58348 6323 ft 243 kts
2026-04-22 07:56 43.98698 87.58332 6999 ft 246 kts 358°
2026-04-22 07:57 44.00401 87.58239 7654 ft 250 kts 358°
2026-04-22 07:57 44.02147 87.58160 8291 ft 253 kts 358°
2026-04-22 07:57 44.03926 87.58087 8897 ft 258 kts 358°
2026-04-22 07:57 44.05734 87.58031 9523 ft 263 kts 358°
2026-04-22 07:58 44.07576 87.57975 10161 ft 266 kts 356°
2026-04-22 07:58 44.09395 87.57510 10708 ft 268 kts 337°
2026-04-22 07:58 44.10910 87.56058 11307 ft 266 kts 310°
2026-04-22 07:58 44.11830 87.53791 11605 ft 278 kts 284°
2026-04-22 07:59 44.12066 87.51091 11872 ft 293 kts 272°
2026-04-22 07:59 44.12122 87.48178 12194 ft 309 kts 271°
2026-04-22 07:59 44.12181 87.45117 12505 ft 323 kts 271°
2026-04-22 07:59 44.12252 87.41928 12773 ft 336 kts 271°
2026-04-22 08:00 44.12335 87.38628 13125 ft 345 kts 271°
2026-04-22 08:00 44.12420 87.35266 13649 ft 348 kts 271°
2026-04-22 08:00 44.12372 87.31939 14140 ft 350 kts 263°
2026-04-22 08:00 44.11759 87.28662 14623 ft 353 kts 248°
2026-04-22 08:01 44.10624 87.25629 15109 ft 355 kts 242°
2026-04-22 08:01 44.09363 87.22653 15600 ft 359 kts 241°
2026-04-22 08:01 44.08084 87.19654 16050 ft 362 kts 242°
2026-04-22 08:01 44.06802 87.16631 16516 ft 364 kts 242°
2026-04-22 08:02 44.05514 87.13584 16996 ft 367 kts 242°
2026-04-22 08:02 44.04216 87.10510 17470 ft 370 kts 242°
2026-04-22 08:02 44.02911 87.07420 17927 ft 372 kts 242°
2026-04-22 08:02 44.01614 87.04347 18363 ft 375 kts 242°
2026-04-22 08:03 44.00290 87.01213 18765 ft 377 kts 242°
2026-04-22 08:03 43.98960 86.98067 19213 ft 379 kts 242°
2026-04-22 08:03 43.97622 86.94907 19623 ft 380 kts 242°
2026-04-22 08:03 43.96277 86.91733 20014 ft 382 kts 242°
2026-04-22 08:04 43.94923 86.88543 20419 ft 385 kts 242°
2026-04-22 08:04 43.93563 86.85339 20809 ft 387 kts 242°
2026-04-22 08:04 43.92194 86.82118 21191 ft 389 kts 242°
2026-04-22 08:04 43.90834 86.78922 21573 ft 391 kts 243°
2026-04-22 08:05 43.89448 86.75672 21947 ft 393 kts 243°
2026-04-22 08:05 43.88053 86.72402 22320 ft 395 kts 243°
2026-04-22 08:05 43.86660 86.69111 22687 ft 397 kts 243°
2026-04-22 08:05 43.85288 86.65776 23051 ft 399 kts 243°
2026-04-22 08:06 43.83910 86.62421 23394 ft 402 kts 244°
2026-04-22 08:06 43.82524 86.59053 23725 ft 403 kts 244°
2026-04-22 08:06 43.81128 86.55672 23997 ft 406 kts 244°
2026-04-22 08:06 43.79720 86.52269 24291 ft 408 kts 244°
2026-04-22 08:07 43.78323 86.48900 24604 ft 409 kts 245°
2026-04-22 08:07 43.76903 86.45481 24924 ft 411 kts 245°
2026-04-22 08:07 43.75475 86.42046 25216 ft 413 kts 245°
2026-04-22 08:07 43.74041 86.38600 25475 ft 415 kts 245°
2026-04-22 08:08 43.72597 86.35135 25823 ft 416 kts 246°
2026-04-22 08:08 43.71150 86.31666 26157 ft 417 kts 246°
2026-04-22 08:08 43.69695 86.28185 26507 ft 419 kts 246°
2026-04-22 08:08 43.68252 86.24739 26864 ft 420 kts 247°
2026-04-22 08:09 43.66788 86.21241 27242 ft 422 kts 247°
2026-04-22 08:09 43.65312 86.17721 27604 ft 424 kts 247°
2026-04-22 08:09 43.63900 86.14160 28014 ft 422 kts 251°
2026-04-22 08:09 43.62815 86.10425 28383 ft 417 kts 260°
2026-04-22 08:10 43.62195 86.06542 28753 ft 412 kts 269°
2026-04-22 08:10 43.62040 86.02629 29221 ft 407 kts 277°
2026-04-22 08:10 43.62261 85.98766 29503 ft 403 kts 282°
2026-04-22 08:10 43.62650 85.94931 29912 ft 404 kts 284°
2026-04-22 08:11 43.63100 85.91148 30318 ft 406 kts 284°
2026-04-22 08:11 43.63572 85.87302 30601 ft 408 kts 284°
2026-04-22 08:11 43.64038 85.83422 30794 ft 411 kts 284°
2026-04-22 08:11 43.64447 85.79504 31050 ft 414 kts 282°
2026-04-22 08:12 43.64776 85.75547 31417 ft 416 kts 281°
2026-04-22 08:12 43.65077 85.71561 31706 ft 419 kts 281°
2026-04-22 08:12 43.65367 85.67553 31929 ft 421 kts 281°
2026-04-22 08:12 43.65663 85.63520 32196 ft 423 kts 281°
2026-04-22 08:13 43.65960 85.59537 32446 ft 423 kts 281°
2026-04-22 08:13 43.66262 85.55482 32654 ft 426 kts 281°
2026-04-22 08:13 43.66574 85.51401 32933 ft 428 kts 281°
2026-04-22 08:13 43.66892 85.47300 33231 ft 430 kts 281°
2026-04-22 08:14 43.67211 85.43183 33519 ft 433 kts 281°
2026-04-22 08:14 43.67528 85.39046 33906 ft 433 kts 281°
2026-04-22 08:14 43.67844 85.34917 34245 ft 432 kts 281°
2026-04-22 08:14 43.68157 85.30795 34614 ft 431 kts 281°
2026-04-22 08:15 43.68463 85.26735 34996 ft 430 kts 280°
2026-04-22 08:15 43.68772 85.22624 35280 ft 431 kts 280°
2026-04-22 08:15 43.68965 85.18479 35564 ft 434 kts 275°
2026-04-22 08:15 43.68808 85.14307 35851 ft 438 kts 269°
2026-04-22 08:16 43.68244 85.10145 36183 ft 443 kts 262°
2026-04-22 08:16 43.67249 85.06088 36474 ft 451 kts 253°
2026-04-22 08:16 43.65812 85.02201 36717 ft 457 kts 247°
2026-04-22 08:16 43.64152 84.98454 37047 ft 458 kts 245°
2026-04-22 08:17 43.62420 84.94761 37435 ft 458 kts 245°
2026-04-22 08:17 43.60690 84.91147 37770 ft 457 kts 244°
2026-04-22 08:17 43.58936 84.87490 38132 ft 456 kts 244°
2026-04-22 08:17 43.57189 84.83835 38441 ft 456 kts 244°
2026-04-22 08:18 43.55452 84.80182 38734 ft 456 kts 244°
2026-04-22 08:18 43.53718 84.76520 39006 ft 455 kts 244°
2026-04-22 08:18 43.51992 84.72865 39196 ft 455 kts 244°
2026-04-22 08:18 43.50266 84.69210 39380 ft 455 kts 244°
2026-04-22 08:19 43.48540 84.65552 39544 ft 456 kts 244°
2026-04-22 08:19 43.46837 84.61945 39755 ft 456 kts 244°
2026-04-22 08:19 43.45108 84.58289 39955 ft 456 kts 244°
2026-04-22 08:19 43.43376 84.54628 39986 ft 456 kts 244°
2026-04-22 08:20 43.39916 84.47341 39979 ft 454 kts 244°
2026-04-22 08:20 43.36923 84.39791 39975 ft 445 kts 255°
2026-04-22 08:21 43.35549 84.31720 39970 ft 433 kts 270°
2026-04-22 08:21 43.35811 84.23537 39957 ft 429 kts 279°
2026-04-22 08:22 43.36557 84.15387 39952 ft 430 kts 281°
2026-04-22 08:22 43.37338 84.07228 39943 ft 430 kts 280°
2026-04-22 08:23 43.38077 83.99121 39941 ft 430 kts 280°
2026-04-22 08:23 43.38795 83.90959 39933 ft 430 kts 280°
2026-04-22 08:24 43.39503 83.82794 39930 ft 430 kts 280°
2026-04-22 08:24 43.40205 83.74630 39922 ft 430 kts 280°
2026-04-22 08:25 43.40899 83.66518 39917 ft 430 kts 280°
2026-04-22 08:25 43.41591 83.58359 39911 ft 429 kts 279°
2026-04-22 08:26 43.42276 83.50203 39906 ft 429 kts 279°
2026-04-22 08:26 43.42956 83.42044 39904 ft 429 kts 279°
2026-04-22 08:27 43.43588 83.33886 39893 ft 430 kts 277°
2026-04-22 08:27 43.43881 83.25717 39886 ft 430 kts 276°
2026-04-22 08:28 43.44096 83.17494 39879 ft 430 kts 276°
2026-04-22 08:28 43.44353 83.09278 39869 ft 429 kts 276°
2026-04-22 08:29 43.44637 83.01073 39864 ft 429 kts 276°
2026-04-22 08:29 43.44921 82.92929 39855 ft 429 kts 276°
2026-04-22 08:30 43.45199 82.84736 39848 ft 429 kts 276°
2026-04-22 08:30 43.45470 82.76539 39850 ft 429 kts 276°
2026-04-22 08:31 43.45735 82.68344 39841 ft 428 kts 276°
2026-04-22 08:32 43.46119 82.56118 39838 ft 428 kts 276°
2026-04-22 08:32 43.46369 82.47923 39836 ft 428 kts 276°
2026-04-22 08:33 43.46613 82.39732 39835 ft 428 kts 276°
2026-04-22 08:33 43.46852 82.31538 39836 ft 428 kts 276°
2026-04-22 08:34 43.47082 82.23411 39836 ft 428 kts 276°
2026-04-22 08:34 43.47309 82.15220 39838 ft 428 kts 276°
2026-04-22 08:35 43.47529 82.07035 39839 ft 428 kts 276°
2026-04-22 08:35 43.47744 81.98847 39843 ft 428 kts 276°
2026-04-22 08:36 43.47952 81.90708 39849 ft 428 kts 276°
2026-04-22 08:36 43.48154 81.82523 39858 ft 428 kts 275°
2026-04-22 08:37 43.48352 81.74343 39857 ft 428 kts 275°
2026-04-22 08:37 43.48548 81.66143 39860 ft 429 kts 275°
2026-04-22 08:38 43.48724 81.57984 39851 ft 429 kts 275°
2026-04-22 08:38 43.48884 81.49786 39871 ft 428 kts 275°
2026-04-22 08:39 43.49048 81.41590 39861 ft 428 kts 275°
2026-04-22 08:39 43.49200 81.33415 39871 ft 427 kts 275°
2026-04-22 08:40 43.49347 81.25306 39860 ft 426 kts 275°
2026-04-22 08:40 43.49490 81.17154 39873 ft 426 kts 275°
2026-04-22 08:41 43.49625 81.09008 39869 ft 425 kts 275°
2026-04-22 08:41 43.49759 81.00881 39877 ft 425 kts 274°
2026-04-22 08:42 43.49888 80.92752 39881 ft 424 kts 274°
2026-04-22 08:42 43.50007 80.84689 39876 ft 424 kts 274°
2026-04-22 08:43 43.50122 80.76585 39879 ft 423 kts 274°
2026-04-22 08:43 43.50276 80.68489 39880 ft 422 kts 275°
2026-04-22 08:44 43.50607 80.60420 39875 ft 422 kts 276°
2026-04-22 08:44 43.50956 80.52410 39870 ft 422 kts 276°
2026-04-22 08:45 43.51274 80.44348 39869 ft 422 kts 275°
2026-04-22 08:45 43.51570 80.36281 39869 ft 422 kts 275°
2026-04-22 08:46 43.51857 80.28217 39867 ft 421 kts 275°
2026-04-22 08:46 43.52137 80.20208 39865 ft 421 kts 275°
2026-04-22 08:47 43.52415 80.12141 39864 ft 421 kts 275°
2026-04-22 08:47 43.52687 80.04076 39858 ft 421 kts 275°
2026-04-22 08:48 43.52954 79.96009 39855 ft 421 kts 275°
2026-04-22 08:48 43.53230 79.87996 39850 ft 421 kts 276°
2026-04-22 08:49 43.54357 79.80125 39851 ft 419 kts 289°
2026-04-22 08:49 43.56908 79.72904 39841 ft 421 kts 299°
2026-04-22 08:50 43.59980 79.65989 39839 ft 423 kts 300°
2026-04-22 08:50 43.63112 79.59106 39836 ft 424 kts 300°
2026-04-22 08:51 43.66201 79.52247 39830 ft 424 kts 300°
2026-04-22 08:51 43.69293 79.45316 39831 ft 424 kts 300°
2026-04-22 08:52 43.72373 79.38374 39827 ft 424 kts 300°
2026-04-22 08:52 43.75419 79.31394 39822 ft 423 kts 297°
2026-04-22 08:53 43.77519 79.23894 39826 ft 421 kts 283°
2026-04-22 08:53 43.77991 79.19936 39600 ft 416 kts 276°
2026-04-22 08:53 43.78136 79.15931 38953 ft 418 kts 273°
2026-04-22 08:53 43.78190 79.11914 38675 ft 417 kts 273°
2026-04-22 08:54 43.78247 79.07904 38432 ft 417 kts 273°
2026-04-22 08:54 43.78313 79.03898 38148 ft 416 kts 273°
2026-04-22 08:54 43.78383 78.99896 37864 ft 416 kts 273°
2026-04-22 08:54 43.78454 78.95890 37581 ft 416 kts 273°
2026-04-22 08:55 43.78525 78.91940 37314 ft 416 kts 273°
2026-04-22 08:55 43.78596 78.87935 37039 ft 416 kts 273°
2026-04-22 08:55 43.78666 78.83931 36774 ft 417 kts 273°
2026-04-22 08:55 43.78736 78.79919 36503 ft 417 kts 273°
2026-04-22 08:56 43.78804 78.75909 36236 ft 417 kts 273°
2026-04-22 08:56 43.78871 78.71901 35858 ft 415 kts 273°
2026-04-22 08:56 43.78936 78.67917 35207 ft 413 kts 273°
2026-04-22 08:56 43.79000 78.63939 34420 ft 415 kts 273°
2026-04-22 08:57 43.79062 78.59993 33596 ft 417 kts 273°
2026-04-22 08:57 43.79123 78.55971 32711 ft 419 kts 273°
2026-04-22 08:57 43.79182 78.51939 31858 ft 420 kts 273°
2026-04-22 08:57 43.79240 78.47893 30989 ft 422 kts 273°
2026-04-22 08:58 43.79296 78.43833 30080 ft 416 kts 273°
2026-04-22 08:58 43.79347 78.39894 29440 ft 409 kts 273°
2026-04-22 08:58 43.79401 78.35958 28797 ft 408 kts 273°
2026-04-22 08:58 43.79452 78.32052 28194 ft 404 kts 273°
2026-04-22 08:59 43.79501 78.28180 27574 ft 401 kts 273°
2026-04-22 08:59 43.79548 78.24384 26969 ft 398 kts 272°
2026-04-22 08:59 43.79594 78.20569 26371 ft 396 kts 272°
2026-04-22 08:59 43.79638 78.16765 25763 ft 394 kts 272°
2026-04-22 09:00 43.79682 78.12988 25162 ft 392 kts 272°
2026-04-22 09:00 43.79735 78.09219 24582 ft 391 kts 272°
2026-04-22 09:00 43.79789 78.05468 23978 ft 390 kts 272°
2026-04-22 09:00 43.79840 78.01719 23366 ft 390 kts 272°
2026-04-22 09:01 43.79735 77.98024 22682 ft 389 kts 264°
2026-04-22 09:01 43.79084 77.94403 22072 ft 389 kts 251°
2026-04-22 09:01 43.77843 77.91083 21441 ft 390 kts 240°
2026-04-22 09:01 43.76354 77.87952 20815 ft 388 kts 239°
2026-04-22 09:02 43.74852 77.84874 20216 ft 385 kts 239°
2026-04-22 09:02 43.73360 77.81803 19585 ft 384 kts 239°
2026-04-22 09:02 43.71874 77.78748 18971 ft 382 kts 239°
2026-04-22 09:02 43.70394 77.75701 18337 ft 381 kts 239°
2026-04-22 09:03 43.68918 77.72658 17651 ft 381 kts 239°
2026-04-22 09:03 43.67450 77.69633 17001 ft 378 kts 238°
2026-04-22 09:03 43.66010 77.66667 16383 ft 375 kts 238°
2026-04-22 09:03 43.64563 77.63686 15742 ft 373 kts 238°
2026-04-22 09:04 43.63122 77.60721 15107 ft 371 kts 237°
2026-04-22 09:04 43.61684 77.57767 14474 ft 370 kts 237°
2026-04-22 09:04 43.60250 77.54823 13845 ft 368 kts 237°
2026-04-22 09:04 43.58824 77.51900 13163 ft 367 kts 237°
2026-04-22 09:05 43.57406 77.48998 12525 ft 363 kts 237°
2026-04-22 09:05 43.56020 77.46159 11915 ft 360 kts 237°
2026-04-22 09:05 43.54628 77.43304 11292 ft 357 kts 237°
2026-04-22 09:05 43.53429 77.40845 10979 ft 349 kts 237°
2026-04-22 09:06 43.52105 77.38134 10876 ft 333 kts 237°
2026-04-22 09:06 43.50845 77.35548 10775 ft 318 kts 237°
2026-04-22 09:06 43.49635 77.33072 10676 ft 305 kts 237°
2026-04-22 09:06 43.48475 77.30703 10566 ft 293 kts 237°
2026-04-22 09:07 43.47357 77.28427 10440 ft 282 kts 237°
2026-04-22 09:07 43.46638 77.26966 10372 ft 275 kts 237°
2026-04-22 09:07 43.45232 77.24105 9971 ft 272 kts 237°
2026-04-22 09:07 43.44167 77.21933 9602 ft 277 kts 237°
2026-04-22 09:08 43.43068 77.19694 9224 ft 285 kts 237°
2026-04-22 09:08 43.41955 77.17427 8863 ft 286 kts 237°
2026-04-22 09:08 43.40847 77.15176 8537 ft 284 kts 237°
2026-04-22 09:08 43.40112 77.13683 8293 ft 284 kts 237°
2026-04-22 09:09 43.39007 77.11440 7948 ft 283 kts 237°
2026-04-22 09:09 43.37903 77.09201 7578 ft 282 kts 237°
2026-04-22 09:09 43.36804 77.06970 7191 ft 282 kts 237°
2026-04-22 09:09 43.35345 77.04026 6693 ft 281 kts 236°
2026-04-22 09:10 43.34242 77.01810 6341 ft 281 kts 236°
2026-04-22 09:10 43.33142 76.99598 5961 ft 280 kts 237°
2026-04-22 09:10 43.32046 76.97393 5607 ft 280 kts 237°
2026-04-22 09:10 43.31318 76.95930 5419 ft 280 kts 236°
2026-04-22 09:11 43.30223 76.93729 5046 ft 279 kts 236°
2026-04-22 09:11 43.29126 76.91534 4722 ft 279 kts 237°
2026-04-22 09:11 43.28034 76.89336 4398 ft 278 kts 237°
2026-04-22 09:11 43.26593 76.86448 4088 ft 276 kts 238°
2026-04-22 09:12 43.25861 76.84984 4053 ft 276 kts 238°
2026-04-22 09:12 43.24772 76.82807 4053 ft 277 kts 237°
2026-04-22 09:12 43.23720 76.80636 4064 ft 276 kts 241°
2026-04-22 09:12 43.23123 76.78184 4057 ft 271 kts 268°
2026-04-22 09:13 43.23487 76.75707 4176 ft 268 kts 298°
2026-04-22 09:13 43.24654 76.73830 4198 ft 249 kts 328°
2026-04-22 09:13 43.26129 76.73020 4214 ft 213 kts 353°
2026-04-22 09:13 43.27492 76.73077 4237 ft 182 kts 14°
2026-04-22 09:14 43.28597 76.73660 4225 ft 159 kts 32°
2026-04-22 09:14 43.29406 76.74542 4207 ft 140 kts 48°
2026-04-22 09:14 43.29963 76.75592 4223 ft 135 kts 62°
2026-04-22 09:14 43.30309 76.76799 4194 ft 139 kts 76°
2026-04-22 09:15 43.30412 76.78113 4181 ft 139 kts 90°
2026-04-22 09:15 43.30312 76.79433 4197 ft 141 kts 97°
2026-04-22 09:15 43.30177 76.80763 4194 ft 140 kts 97°
2026-04-22 09:15 43.30040 76.82100 4175 ft 140 kts 97°
2026-04-22 09:16 43.29905 76.83428 4206 ft 141 kts 97°
2026-04-22 09:16 43.29770 76.84759 4182 ft 140 kts 97°
2026-04-22 09:16 43.29641 76.86091 4193 ft 141 kts 97°
2026-04-22 09:16 43.29512 76.87425 4216 ft 141 kts 97°
2026-04-22 09:17 43.29379 76.88742 4209 ft 142 kts 96°
2026-04-22 09:17 43.29250 76.90093 4201 ft 143 kts 97°
2026-04-22 09:17 43.29304 76.91445 4198 ft 142 kts 77°
2026-04-22 09:17 43.29722 76.92651 4212 ft 141 kts 54°
2026-04-22 09:18 43.30327 76.93730 4162 ft 145 kts 52°
2026-04-22 09:18 43.30939 76.94872 3763 ft 154 kts 55°
2026-04-22 09:18 43.31559 76.96133 3320 ft 160 kts 55°
2026-04-22 09:18 43.32164 76.97356 3129 ft 149 kts 55°
2026-04-22 09:19 43.32720 76.98471 2932 ft 139 kts 56°
2026-04-22 09:19 43.33254 76.99546 2775 ft 136 kts 56°
2026-04-22 09:19 43.33786 77.00620 2600 ft 137 kts 56°
2026-04-22 09:19 43.34324 77.01709 2418 ft 138 kts 56°
2026-04-22 09:20 43.34869 77.02800 2271 ft 138 kts 59°
2026-04-22 09:20 43.35352 77.03762 2225 ft 91 kts 56°
2026-04-22 09:20 43.35548 77.04158 2229 ft 24 kts 56°
2026-04-22 09:20 43.35653 77.04371 2227 ft 28 kts 56°
2026-04-22 09:21 43.35765 77.04598 2226 ft 30 kts 56°
2026-04-22 09:21 43.35883 77.04840 2225 ft 31 kts 56°
2026-04-22 09:21 43.35941 77.05084 2229 ft 23 kts 122°
2026-04-22 09:21 43.35823 77.05136 2235 ft 17 kts 210°
2026-04-22 09:22 43.35743 77.05004 2235 ft 19 kts 234°
2026-04-22 09:22 43.35664 77.04850 2236 ft 20 kts 235°
2026-04-22 09:22 43.35581 77.04688 2236 ft 22 kts 235°
2026-04-22 09:22 43.35493 77.04514 2237 ft 23 kts 235°
2026-04-22 09:23 43.35401 77.04322 2232 ft 25 kts 236°
2026-04-22 09:23 43.35304 77.04122 2226 ft 27 kts 235°
2026-04-22 09:23 43.35173 77.03852 2227 ft 39 kts 234°
2026-04-22 09:23 43.35005 77.03519 2235 ft 43 kts 236°
2026-04-22 09:24 43.34840 77.03175 2231 ft 43 kts 243°
2026-04-22 09:24 43.34781 77.02781 2234 ft 43 kts 268°
2026-04-22 09:24 43.34780 77.02378 2235 ft 42 kts 273°
2026-04-22 09:24 43.34795 77.02236 2231 ft 1 kts 324°
2026-04-22 09:25 43.34902 77.02234 2234 ft 30 kts 12°
2026-04-22 09:25 43.35013 77.02113 2235 ft 20 kts 290°
2026-04-22 09:25 43.35068 77.02062 2235 ft 8 kts 352°
2026-04-22 09:25 43.35133 77.02058 2235 ft 1 kts